Location: Asheville, NC
(35.6000°N, 82.5500°W)
Time: 02:49:46
(UTC-05:00)

KKS-1 - Pass Details

Date: 14 February 2018
Orbit: 638 x 650 km, 98.3° (Epoch: 18 February)

Event Time Altitude Azimuth Distance (km) Brightness Sun altitude
Rises 18:37:48 0° 2° (N) 2,969 ? -6.1°
Reaches altitude 10° 18:40:09 10° 354° (N) 2,056 ? -6.6°
Maximum altitude 18:44:14 36° 289° (WNW) 1,034 ? -7.4°
Drops below altitude 10° 18:48:18 10° 223° (SW) 2,044 ? -8.2°
Sets 18:50:38 0° 214° (SW) 2,950 ? -8.6°
